Regional Weather Roundup
Issued by NWS Kansas City/Pleasant Hill, MO

Home | Current Version | Previous Version | Text Only | Print | Product List | Glossary On
Versions: 1 2 3 4 5 6 7 8 9 10 11 12 13 14 15 16 17 18 19 20 21 22 23 24 25 26 27 28 29 30 31 32 33 34 35 36 37 38 39 40 41 42 43 44 45 46 47 48 49 50
000
ASUS43 KEAX 230504
RWREAX

WEATHER ROUNDUP FOR EASTERN KANSAS AND NORTHWEST MISSOURI
NATIONAL WEATHER SERVICE KANSAS CITY/PLEASANT HILL MO
1200 AM CDT SAT AUG 23 2014

KSZ040-057-103>105-MOZ028-029-037-043-230600-
...KANSAS CITY METROPOLITAN AREA...

CITY           SKY/WX    TMP DP  RH WIND       PRES   REMARKS
K.C. INTL      MOCLDY    80  71  74 SE8       29.93S
K.C. DOWNTOWN  MOCLDY    83  69  62 SE3       29.91S
LEES SUMMIT    PTCLDY    78  69  73 E6        29.95R
OLATHE - IXD   PTCLDY    77  70  79 SE5       29.94R
OLATHE - OJC   PTCLDY    77  69  76 SE3       29.93S
LAWRENCE       PTCLDY    77  71  82 E7        29.92S

$$

MOZ001>008-011>017-020>025-030>033-038>040-044>046-053-054-230600-
...NORTHERN AND CENTRAL MISSOURI...

CITY           SKY/WX    TMP DP  RH WIND       PRES   REMARKS
ST. JOSEPH     MOCLDY    80  76  87 E5        29.92S
MOSBY          MOCLDY    79  73  83 CALM      29.92S
WHITEMAN AFB   PTCLDY    77  71  83 CALM      29.94R
CLINTON        PTCLDY    75  73  94 CALM      29.95R
SEDALIA        PTCLDY    78  75  90 S3        29.95R
WARSAW         NOT AVBL
MARSHALL       PTCLDY    84  81  89 E5        29.95S HX  98
CHILLICOTHE      N/A     80  77  90 CALM      29.95R
MOBERLY        PTCLDY    79  73  83 E6        29.96S
KIRKSVILLE     PTCLDY    79  76  90 E5        29.96S

$$

MOZ041-047>049-056>058-063>065-088>090-097-230600-
...EASTERN AND SOUTHERN MISSOURI...

CITY           SKY/WX    TMP DP  RH WIND       PRES   REMARKS
ST. LOUIS INTL MOCLDY    83  78  85 E5        29.94F HX  93
SPIRIT OF STL  MOCLDY    78  76  93 CALM      29.92F
COLUMBIA       PTCLDY    80  76  87 E6        29.94R
JEFFERSON CITY CLEAR     79  76  90 CALM      29.92S
MEXICO         MOCLDY   N/A N/A N/A N3        29.95R
ROLLA          PTCLDY    80  69  69 S10       29.96R
LEBANON        PTCLDY    82  68  61 SW7       30.00R
OSAGE BEACH    PTCLDY    79  72  78 CALM      29.96R
SPRINGFIELD    CLEAR     80  70  71 S7        29.99R
BRANSON        CLEAR     81  72  74 S6        30.02R
NEVADA         CLEAR     79  72  78 S5        29.96R
JOPLIN         CLEAR     83  72  69 S10       29.97R
WEST PLAINS    CLEAR     80  70  71 SW6       30.02R

$$

IAZ060-094-KSZ022-034>040-054-083-096-NEZ052-066-093-230600-
...KANSAS...SOUTHEAST NEBRASKA AND IOWA...

CITY           SKY/WX    TMP DP  RH WIND       PRES   REMARKS
TOPEKA         MOCLDY    80  74  81 CALM      29.91S
MANHATTAN      MOCLDY    81  67  62 NE5       29.88F
EMPORIA        CLEAR     75  70  84 SE9       29.91S
CHANUTE        CLEAR     82  72  71 S9        29.93S
WICHITA        PTCLDY    85  65  51 S16       29.89S
OMAHA          CLOUDY    76  73  91 E8        29.91F
LINCOLN        TSTM      76  72  87 VRB3      29.92F
FALLS CITY     MOCLDY    75  72  90 SE5       29.90F
LAMONI         PTCLDY    78  75  90 SE5       29.95R
DES MOINES     CLOUDY    78  74  87 CALM      29.93R

$$




USA.gov is the U.S. government's official web portal to all federal, state and local government web resources and services.